TimeEDT,TemperatureF,Dew PointF,Humidity,Sea Level PressureIn,VisibilityMPH,Wind Direction,Wind SpeedMPH,Gust SpeedMPH,PrecipitationIn,Events,Conditions,WindDirDegrees,DateUTC
12:15 AM,35.4,34.7,97,30.14,7.0,Calm,Calm,-,N/A,,Clear,0,2012-10-08 04:15:00
12:34 AM,33.6,32.7,96,30.14,3.0,Calm,Calm,-,N/A,,Clear,0,2012-10-08 04:34:00
12:54 AM,34.3,33.6,97,30.14,4.0,Calm,Calm,-,N/A,,Mostly Cloudy,0,2012-10-08 04:54:00
1:15 AM,33.8,32.9,96,30.14,1.8,Calm,Calm,-,N/A,,Overcast,0,2012-10-08 05:15:00
1:35 AM,33.1,32.4,97,30.14,5.0,SSW,4.6,-,N/A,,Mostly Cloudy,200,2012-10-08 05:35:00
1:54 AM,34.2,33.4,97,30.15,10.0,Calm,Calm,-,N/A,,Mostly Cloudy,0,2012-10-08 05:54:00
2:15 AM,32.4,31.6,97,30.16,10.0,Calm,Calm,-,N/A,,Scattered Clouds,0,2012-10-08 06:15:00
2:34 AM,30.9,30.4,98,30.16,7.0,Calm,Calm,-,N/A,,Clear,0,2012-10-08 06:34:00
2:55 AM,31.3,30.6,97,30.16,7.0,Calm,Calm,-,N/A,,Clear,0,2012-10-08 06:55:00
3:14 AM,31.6,31.1,98,30.16,7.0,Calm,Calm,-,N/A,,Scattered Clouds,0,2012-10-08 07:14:00
3:34 AM,31.6,30.9,97,30.16,7.0,Calm,Calm,-,N/A,,Scattered Clouds,0,2012-10-08 07:34:00
3:55 AM,33.1,32.4,97,30.16,10.0,SSW,3.5,-,N/A,,Clear,200,2012-10-08 07:55:00
4:14 AM,35.2,33.4,93,30.15,10.0,SSW,4.6,-,N/A,,Clear,210,2012-10-08 08:14:00
4:35 AM,35.6,33.3,91,30.15,10.0,SW,4.6,-,N/A,,Clear,220,2012-10-08 08:35:00
4:55 AM,35.4,33.3,92,30.15,10.0,SSW,4.6,-,N/A,,Clear,210,2012-10-08 08:55:00
5:15 AM,36.0,33.4,91,30.15,10.0,SSW,4.6,-,N/A,,Clear,210,2012-10-08 09:15:00
5:35 AM,36.0,33.6,91,30.16,10.0,SSW,4.6,-,N/A,,Clear,210,2012-10-08 09:35:00
5:54 AM,35.6,33.4,92,30.16,10.0,SSW,4.6,-,N/A,,Clear,210,2012-10-08 09:54:00
6:15 AM,36.0,33.4,91,30.16,10.0,SSW,5.8,-,N/A,,Clear,200,2012-10-08 10:15:00
6:34 AM,36.0,33.1,89,30.16,10.0,SSW,4.6,-,N/A,,Clear,210,2012-10-08 10:34:00
6:54 AM,36.0,32.5,87,30.17,10.0,SSW,3.5,-,N/A,,Clear,210,2012-10-08 10:54:00
7:14 AM,35.6,31.6,85,30.17,10.0,SSW,5.8,-,N/A,,Clear,210,2012-10-08 11:14:00
7:35 AM,35.2,31.1,85,30.18,10.0,SSW,4.6,-,N/A,,Clear,200,2012-10-08 11:35:00
7:54 AM,34.9,31.1,86,30.18,10.0,SSW,5.8,-,N/A,,Clear,200,2012-10-08 11:54:00
8:14 AM,35.4,30.6,82,30.19,10.0,SSW,4.6,-,N/A,,Clear,210,2012-10-08 12:14:00
8:35 AM,36.9,30.4,77,30.19,10.0,SW,3.5,-,N/A,,Clear,220,2012-10-08 12:35:00
8:55 AM,38.5,30.0,72,30.19,10.0,SW,4.6,-,N/A,,Clear,230,2012-10-08 12:55:00
9:15 AM,39.7,30.7,70,30.19,10.0,SW,4.6,-,N/A,,Clear,220,2012-10-08 13:15:00
9:34 AM,41.4,30.6,65,30.19,10.0,SW,5.8,-,N/A,,Clear,230,2012-10-08 13:34:00
9:55 AM,42.8,31.6,65,30.19,10.0,SW,4.6,-,N/A,,Clear,220,2012-10-08 13:55:00
10:15 AM,44.1,31.1,60,30.19,10.0,SW,5.8,-,N/A,,Clear,230,2012-10-08 14:15:00
10:34 AM,45.1,30.6,57,30.19,10.0,SW,8.1,-,N/A,,Clear,220,2012-10-08 14:34:00
10:55 AM,46.2,30.6,54,30.19,10.0,SW,5.8,-,N/A,,Clear,230,2012-10-08 14:55:00
11:14 AM,47.1,28.4,48,30.19,10.0,WSW,10.4,-,N/A,,Clear,240,2012-10-08 15:14:00
11:34 AM,47.7,27.5,46,30.19,10.0,SW,6.9,-,N/A,,Clear,230,2012-10-08 15:34:00
11:55 AM,48.0,26.8,44,30.19,10.0,SSW,8.1,-,N/A,,Clear,210,2012-10-08 15:55:00
12:14 PM,48.6,27.0,43,30.19,10.0,South,5.8,-,N/A,,Clear,170,2012-10-08 16:14:00
12:35 PM,49.6,27.5,42,30.19,10.0,SSW,10.4,-,N/A,,Clear,200,2012-10-08 16:35:00
12:55 PM,49.6,26.8,41,30.19,10.0,WSW,6.9,-,N/A,,Clear,240,2012-10-08 16:55:00
1:14 PM,50.4,26.4,39,30.18,10.0,SSW,10.4,17.3,N/A,,Clear,200,2012-10-08 17:14:00
1:35 PM,50.4,25.3,38,30.17,10.0,SSW,8.1,16.1,N/A,,Clear,210,2012-10-08 17:35:00
1:55 PM,50.9,25.5,37,30.16,10.0,SW,8.1,-,N/A,,Clear,230,2012-10-08 17:55:00
2:15 PM,51.3,25.3,37,30.15,10.0,WSW,10.4,-,N/A,,Clear,240,2012-10-08 18:15:00
2:34 PM,52.0,25.2,35,30.13,10.0,South,12.7,-,N/A,,Clear,190,2012-10-08 18:34:00
2:55 PM,52.2,25.0,35,30.13,10.0,SSW,6.9,-,N/A,,Clear,200,2012-10-08 18:55:00
3:15 PM,52.7,24.6,34,30.12,10.0,South,8.1,-,N/A,,Clear,190,2012-10-08 19:15:00
3:34 PM,52.3,24.6,34,30.12,10.0,SSW,6.9,-,N/A,,Clear,210,2012-10-08 19:34:00
3:55 PM,52.9,24.8,34,30.12,10.0,WSW,10.4,-,N/A,,Clear,240,2012-10-08 19:55:00
4:15 PM,53.1,25.0,34,30.11,10.0,SSW,6.9,-,N/A,,Clear,210,2012-10-08 20:15:00
4:34 PM,53.1,24.4,33,30.11,10.0,South,11.5,-,N/A,,Clear,190,2012-10-08 20:34:00
4:55 PM,53.1,25.2,34,30.10,10.0,SW,9.2,-,N/A,,Clear,220,2012-10-08 20:55:00
5:15 PM,53.1,25.0,34,30.10,10.0,SW,9.2,-,N/A,,Clear,230,2012-10-08 21:15:00
5:35 PM,52.5,25.5,35,30.10,10.0,SSW,6.9,-,N/A,,Clear,210,2012-10-08 21:35:00
5:55 PM,52.2,25.3,35,30.10,10.0,South,6.9,-,N/A,,Clear,190,2012-10-08 21:55:00
6:14 PM,51.4,24.4,35,30.10,10.0,SSW,9.2,-,N/A,,Clear,200,2012-10-08 22:14:00
6:35 PM,50.5,25.7,38,30.09,10.0,South,5.8,-,N/A,,Clear,190,2012-10-08 22:35:00
6:54 PM,48.7,26.2,42,30.09,10.0,South,5.8,-,N/A,,Clear,190,2012-10-08 22:54:00
7:15 PM,47.3,26.8,45,30.09,10.0,South,3.5,-,N/A,,Clear,180,2012-10-08 23:15:00
7:35 PM,46.2,26.8,47,30.09,10.0,South,3.5,-,N/A,,Clear,180,2012-10-08 23:35:00
7:55 PM,46.0,27.0,47,30.09,10.0,Calm,Calm,-,N/A,,Clear,0,2012-10-08 23:55:00
8:14 PM,45.3,26.6,48,30.09,10.0,Calm,Calm,-,N/A,,Clear,0,2012-10-09 00:14:00
8:35 PM,44.8,26.4,49,30.10,10.0,Calm,Calm,-,N/A,,Clear,0,2012-10-09 00:35:00
8:54 PM,43.7,26.4,51,30.10,10.0,SSE,3.5,-,N/A,,Clear,150,2012-10-09 00:54:00
9:15 PM,41.4,28.4,60,30.10,10.0,SSE,3.5,-,N/A,,Clear,160,2012-10-09 01:15:00
9:34 PM,40.1,28.4,63,30.11,10.0,Calm,Calm,-,N/A,,Clear,0,2012-10-09 01:34:00
9:55 PM,39.0,29.1,68,30.11,10.0,South,3.5,-,N/A,,Clear,170,2012-10-09 01:55:00
10:14 PM,40.3,28.6,63,30.11,10.0,South,3.5,-,N/A,,Clear,170,2012-10-09 02:14:00
10:35 PM,40.8,28.6,62,30.11,10.0,South,4.6,-,N/A,,Clear,170,2012-10-09 02:35:00
10:55 PM,40.3,28.2,62,30.11,10.0,South,3.5,-,N/A,,Clear,170,2012-10-09 02:55:00
11:14 PM,40.5,28.4,62,30.11,10.0,South,4.6,-,N/A,,Clear,170,2012-10-09 03:14:00
11:54 PM,38.7,28.9,68,30.11,10.0,South,3.5,-,N/A,,Clear,170,2012-10-09 03:54:00